Location: Unspecified
(47.1121°N, 116.3927°W)
Time: 07:12:05
(UTC-08:00)

Okean 3 - Visible Passes

Search period start: 19 November 2018 00:00
Search period end: 29 November 2018 00:00
Orbit: 578 x 601 km, 82.5° (Epoch: 19 November)

Date Brightness Start Highest point End Pass type
(mag) Time Alt. Az. Time Alt. Az. Time Alt. Az.
21 Nov 6.5 05:44:55 10° NE 05:46:33 12° ENE 05:48:09 10° E visible
22 Nov 6.2 05:52:00 10° NNE 05:54:47 16° ENE 05:57:32 10° ESE visible
23 Nov 5.9 05:59:32 10° NNE 06:02:58 23° ENE 06:06:23 10° ESE visible
24 Nov 5.4 06:07:14 10° N 06:11:07 31° ENE 06:14:58 10° SE visible
25 Nov 4.7 06:15:04 10° N 06:19:13 45° ENE 06:23:20 10° SSE visible
26 Nov 4.0 06:22:59 10° N 06:27:18 66° ENE 06:31:33 10° SSE visible
27 Nov 6.6 04:56:10 10° NE 04:57:25 11° ENE 04:58:39 10° E visible
27 Nov 3.5 06:30:59 10° N 06:35:20 85° W 06:39:37 10° S visible
28 Nov 6.3 05:03:03 10° NNE 05:05:39 15° ENE 05:08:14 10° ESE visible
